Kokomo, IN

3:13 AM EDT on April 20, 2018 (GMT -0400)
Kokomo Municipal

Weather History for KOKK - April, 2013

Change the Weather History Date:

Wednesday, April 24, 2013

  Actual Average (KGUS) Record (KGUS)
Temperature  
Mean Temperature 42 °F -  
Max Temperature 46 °F 63 °F 77 °F (1998)
Min Temperature 37 °F 43 °F 32 °F (2005)
Degree Days  
Heating Degree Days 24    
Moisture  
Dew Point 35 °F    
Average Humidity 81    
Maximum Humidity 93    
Minimum Humidity 57    
Precipitation  
Precipitation 0.37 in - - ()
Sea Level Pressure  
Sea Level Pressure 29.98 in    
Wind  
Wind Speed 14 mph (NW)    
Max Wind Speed 22 mph    
Max Gust Speed 28 mph    
Visibility 10 miles    
Events      
Averages and records for this station are not official NWS values.
T = Trace of Precipitation, MM = Missing Value Source: NWS Daily Summary

Daily Weather History Graph

Daily Weather History Graph

Search for Another Location

Airport or City:

Astronomy

Apr. 24, 2013 Rise Set
Actual Time 5:52 AM CDT 7:33 PM CDT
Civil Twilight 5:23 AM CDT 8:02 PM CDT
Nautical Twilight 4:48 AM CDT 8:37 PM CDT
Astronomical Twilight 4:10 AM CDT 9:15 PM CDT
Moon 6:35 PM CDT (4/24) 4:55 AM CDT (4/24)
Length of Visible Light 14h 38m
Length of Day
13h 40m
Waxing Gibbous, 98% of the Moon is Illuminated
Apr 24
Waxing Gibbous
Apr 25
Full
May 2
Last Quarter
May 9
New
May 17
First Quarter

Hourly Weather History & Observations

Time (CDT) Temp. Windchill Dew Point Humidity Pressure Visibility Wind Dir Wind Speed Gust Speed Precip Events Conditions
12:15 AM 44.6 °F 38.1 °F 42.8 °F 93% 29.81 in 10.0 mi North 13.8 mph - 0.04 in   Overcast
12:35 AM 44.6 °F 38.8 °F 41.0 °F 87% 29.82 in 10.0 mi North 11.5 mph - 0.05 in   Overcast
12:55 AM 44.6 °F 38.1 °F 41.0 °F 87% 29.80 in 10.0 mi NNW 13.8 mph - 0.06 in   Overcast
1:15 AM 44.6 °F 38.4 °F 41.0 °F 87% 29.82 in 10.0 mi NNW 12.7 mph 20.7 mph 0.01 in   Overcast
1:35 AM 42.8 °F 36.6 °F 41.0 °F 93% 29.81 in 10.0 mi NNW 11.5 mph 17.3 mph 0.05 in   Overcast
1:55 AM 42.8 °F 36.2 °F 39.2 °F 87% 29.83 in 10.0 mi NW 12.7 mph - 0.07 in   Overcast
2:15 AM 42.8 °F 35.1 °F 39.2 °F 87% 29.82 in 10.0 mi NW 16.1 mph 21.9 mph N/A   Overcast
2:35 AM 42.8 °F 36.2 °F 37.4 °F 81% 29.83 in 10.0 mi NW 12.7 mph - 0.01 in   Overcast
2:55 AM 41.0 °F 33.1 °F 37.4 °F 87% 29.82 in 9.0 mi NW 15.0 mph 18.4 mph 0.03 in   Overcast
3:15 AM 41.0 °F 32.5 °F 39.2 °F 93% 29.83 in 7.0 mi NW 17.3 mph - 0.02 in   Overcast
3:35 AM 41.0 °F 31.9 °F 37.4 °F 87% 29.86 in 10.0 mi NW 19.6 mph 23.0 mph 0.03 in   Overcast
3:55 AM 39.2 °F 31.6 °F 37.4 °F 93% 29.84 in 10.0 mi NNW 12.7 mph - 0.06 in   Overcast
4:15 AM 39.2 °F 30.5 °F 37.4 °F 93% 29.85 in 10.0 mi NW 16.1 mph - 0.02 in   Overcast
4:35 AM 39.2 °F 31.2 °F 35.6 °F 87% 29.84 in 10.0 mi NW 13.8 mph - 0.03 in   Overcast
4:55 AM 39.2 °F 31.6 °F 37.4 °F 93% 29.85 in 10.0 mi NW 12.7 mph - 0.04 in   Overcast
5:15 AM 39.2 °F 31.2 °F 37.4 °F 93% 29.84 in 10.0 mi NNW 13.8 mph 23.0 mph 0.02 in   Overcast
5:35 AM 39.2 °F 31.2 °F 35.6 °F 87% 29.86 in 10.0 mi NNW 13.8 mph - 0.03 in   Overcast
5:55 AM 39.2 °F 30.5 °F 37.4 °F 93% 29.87 in 8.0 mi NNW 16.1 mph - 0.04 in   Overcast
6:15 AM 39.2 °F 31.2 °F 37.4 °F 93% 29.88 in 8.0 mi NNW 13.8 mph 20.7 mph 0.01 in   Overcast
6:35 AM 39.2 °F 30.5 °F 35.6 °F 87% 29.89 in 8.0 mi NNW 16.1 mph - 0.01 in   Overcast
6:55 AM 37.4 °F 28.2 °F 35.6 °F 93% 29.88 in 2.5 mi North 16.1 mph - 0.01 in   Overcast
7:15 AM 37.4 °F 28.5 °F 35.6 °F 93% 29.87 in 5.0 mi North 15.0 mph - 0.02 in   Overcast
7:35 AM 37.4 °F 28.9 °F 35.6 °F 93% 29.88 in 10.0 mi NNW 13.8 mph - 0.04 in   Overcast
7:55 AM 37.4 °F 29.3 °F 35.6 °F 93% 29.88 in 10.0 mi North 12.7 mph - 0.05 in   Overcast
8:15 AM 37.4 °F 29.8 °F 33.8 °F 87% 29.89 in 10.0 mi NNW 11.5 mph - N/A   Overcast
8:35 AM 37.4 °F 28.9 °F 33.8 °F 87% 29.89 in 10.0 mi NNW 13.8 mph - N/A   Overcast
8:55 AM 37.4 °F 29.3 °F 33.8 °F 87% 29.90 in 10.0 mi North 12.7 mph 23.0 mph N/A   Overcast
9:15 AM 37.4 °F 28.9 °F 33.8 °F 87% 29.90 in 10.0 mi NNW 13.8 mph - N/A   Overcast
9:35 AM 37.4 °F 29.3 °F 33.8 °F 87% 29.92 in 10.0 mi NNW 12.7 mph - N/A   Overcast
9:55 AM 37.4 °F 28.9 °F 32.0 °F 81% 29.94 in 10.0 mi NW 13.8 mph - N/A   Overcast
10:15 AM 37.4 °F 26.6 °F 32.0 °F 81% 29.95 in 9.0 mi NW 21.9 mph 26.5 mph N/A   Overcast
10:35 AM 37.4 °F 26.9 °F 33.8 °F 87% 29.96 in 10.0 mi NW 20.7 mph 27.6 mph 0.01 in   Overcast
10:55 AM 37.4 °F 27.5 °F 33.8 °F 87% 29.97 in 5.0 mi NW 18.4 mph 26.5 mph 0.01 in   Overcast
11:15 AM 37.4 °F 26.9 °F 33.8 °F 87% 29.97 in 9.0 mi NW 20.7 mph 25.3 mph N/A   Overcast
11:35 AM 37.4 °F 27.8 °F 33.8 °F 87% 29.97 in 10.0 mi NNW 17.3 mph 23.0 mph N/A   Overcast
11:55 AM 37.4 °F 28.2 °F 33.8 °F 87% 29.98 in 10.0 mi NNW 16.1 mph 25.3 mph N/A   Overcast
12:15 PM 39.2 °F 30.2 °F 35.6 °F 87% 30.00 in 10.0 mi NW 17.3 mph - N/A   Overcast
12:35 PM 39.2 °F 30.2 °F 35.6 °F 87% 30.01 in 10.0 mi NW 17.3 mph 24.2 mph N/A   Overcast
12:55 PM 39.2 °F 30.5 °F 35.6 °F 87% 30.01 in 10.0 mi NW 16.1 mph - N/A   Overcast
1:15 PM 41.0 °F 32.2 °F 35.6 °F 81% 30.02 in 10.0 mi NW 18.4 mph - N/A   Overcast
1:35 PM 42.8 °F 34.5 °F 35.6 °F 76% 30.02 in 10.0 mi NW 18.4 mph 23.0 mph N/A   Mostly Cloudy
1:55 PM 42.8 °F 34.8 °F 35.6 °F 76% 30.03 in 10.0 mi NW 17.3 mph 23.0 mph N/A   Mostly Cloudy
2:15 PM 42.8 °F 35.1 °F 37.4 °F 81% 30.04 in 10.0 mi NNW 16.1 mph - N/A   Mostly Cloudy
2:35 PM 42.8 °F 34.8 °F 37.4 °F 81% 30.05 in 8.0 mi WNW 17.3 mph 21.9 mph N/A   Mostly Cloudy
2:55 PM 44.6 °F 37.2 °F 37.4 °F 76% 30.05 in 10.0 mi NW 17.3 mph - N/A   Mostly Cloudy
3:15 PM 44.6 °F 36.9 °F 37.4 °F 76% 30.04 in 10.0 mi WNW 18.4 mph - N/A   Mostly Cloudy
3:35 PM 44.6 °F 37.8 °F 35.6 °F 71% 30.05 in 10.0 mi NW 15.0 mph 19.6 mph N/A   Mostly Cloudy
3:55 PM 44.6 °F 38.4 °F 37.4 °F 76% 30.05 in 10.0 mi NW 12.7 mph 20.7 mph N/A   Overcast
4:15 PM 41.0 °F 34.3 °F 37.4 °F 87% 30.07 in 7.0 mi WNW 11.5 mph 27.6 mph N/A   Overcast
4:35 PM 44.6 °F 37.4 °F 35.6 °F 71% 30.07 in 10.0 mi WNW 16.1 mph 20.7 mph N/A   Mostly Cloudy
4:55 PM 46.4 °F 39.5 °F 35.6 °F 66% 30.08 in 10.0 mi WNW 17.3 mph 21.9 mph N/A   Mostly Cloudy
5:15 PM 44.6 °F 38.8 °F 35.6 °F 71% 30.08 in 10.0 mi NW 11.5 mph - N/A   Mostly Cloudy
5:35 PM 44.6 °F 37.8 °F 35.6 °F 71% 30.09 in 10.0 mi WNW 15.0 mph 18.4 mph N/A   Mostly Cloudy
5:55 PM 46.4 °F 40.4 °F 33.8 °F 62% 30.09 in 10.0 mi WNW 13.8 mph 19.6 mph N/A   Mostly Cloudy
6:15 PM 46.4 °F 40.4 °F 32.0 °F 57% 30.10 in 10.0 mi WNW 13.8 mph - N/A   Scattered Clouds
6:35 PM 44.6 °F 38.1 °F 32.0 °F 61% 30.10 in 10.0 mi WNW 13.8 mph - N/A   Scattered Clouds
6:55 PM 44.6 °F 38.8 °F 30.2 °F 57% 30.11 in 10.0 mi WNW 11.5 mph - N/A   Scattered Clouds
7:15 PM 44.6 °F 39.7 °F 30.2 °F 57% 30.12 in 10.0 mi WNW 9.2 mph - N/A   Mostly Cloudy
7:35 PM 44.6 °F 40.7 °F 32.0 °F 61% 30.13 in 10.0 mi West 6.9 mph - N/A   Overcast
7:55 PM 44.6 °F 39.7 °F 33.8 °F 66% 30.14 in 10.0 mi West 9.2 mph - N/A   Overcast
8:15 PM 42.8 °F 38.0 °F 33.8 °F 70% 30.15 in 10.0 mi WSW 8.1 mph - N/A   Mostly Cloudy
8:35 PM 42.8 °F 38.6 °F 33.8 °F 70% 30.16 in 10.0 mi WSW 6.9 mph - N/A   Mostly Cloudy
8:55 PM 42.8 °F 38.6 °F 32.0 °F 66% 30.18 in 10.0 mi WSW 6.9 mph - N/A   Overcast
9:55 PM 41.0 °F 36.4 °F 32.0 °F 70% 30.18 in 10.0 mi SW 6.9 mph - N/A   Mostly Cloudy
10:15 PM 39.2 °F 34.2 °F 32.0 °F 75% 30.18 in 10.0 mi SW 6.9 mph - N/A   Mostly Cloudy
10:35 PM 39.2 °F 33.6 °F 32.0 °F 75% 30.18 in 10.0 mi SW 8.1 mph - N/A   Mostly Cloudy
10:55 PM 39.2 °F 33.6 °F 33.8 °F 81% 30.18 in 10.0 mi SW 8.1 mph - N/A   Mostly Cloudy
11:35 PM 39.2 °F 33.0 °F 32.0 °F 75% 30.18 in 10.0 mi SW 9.2 mph - N/A   Partly Cloudy
11:55 PM 39.2 °F 33.0 °F 33.8 °F 81% 30.18 in 10.0 mi WSW 9.2 mph - N/A   Clear